Year,Month,Day,Hour,Minute,Value (Times are PST for temperature in C)
2010,01,22,00,00,3.20
2010,01,22,00,01,3.20
2010,01,22,00,02,3.20
2010,01,22,00,03,3.20
2010,01,22,00,04,3.10
2010,01,22,00,05,3.10
2010,01,22,00,06,3.10
2010,01,22,00,07,3.10
2010,01,22,00,08,3.10
2010,01,22,00,09,3.10
2010,01,22,00,10,3.10
2010,01,22,00,11,3.10
2010,01,22,00,12,3.10
2010,01,22,00,13,3.00
2010,01,22,00,14,2.90
2010,01,22,00,15,2.90
2010,01,22,00,16,2.90
2010,01,22,00,17,2.90
2010,01,22,00,18,2.90
2010,01,22,00,19,2.90
2010,01,22,00,20,2.90
2010,01,22,00,21,2.90
2010,01,22,00,22,2.80
2010,01,22,00,23,2.80
2010,01,22,00,24,2.80
2010,01,22,00,25,2.70
2010,01,22,00,26,2.70
2010,01,22,00,27,2.70
2010,01,22,00,28,2.70
2010,01,22,00,29,2.70
2010,01,22,00,30,2.70
2010,01,22,00,31,2.70
2010,01,22,00,32,2.70
2010,01,22,00,33,2.70
2010,01,22,00,34,2.70
2010,01,22,00,35,2.80
2010,01,22,00,36,2.80
2010,01,22,00,37,2.90
2010,01,22,00,38,2.90
2010,01,22,00,39,2.90
2010,01,22,00,40,2.90
2010,01,22,00,41,2.90
2010,01,22,00,42,2.90
2010,01,22,00,43,2.90
2010,01,22,00,44,2.90
2010,01,22,00,45,3.00
2010,01,22,00,46,3.10
2010,01,22,00,47,3.10
2010,01,22,00,48,3.10
2010,01,22,00,49,3.10
2010,01,22,00,50,3.00
2010,01,22,00,51,2.90
2010,01,22,00,52,2.90
2010,01,22,00,53,2.90
2010,01,22,00,54,2.90
2010,01,22,00,55,2.90
2010,01,22,00,56,2.90
2010,01,22,00,57,2.90
2010,01,22,00,58,2.90
2010,01,22,00,59,2.90
2010,01,22,01,00,2.90
2010,01,22,01,01,2.90
2010,01,22,01,02,2.90
2010,01,22,01,03,2.90
2010,01,22,01,04,2.90
2010,01,22,01,05,2.90
2010,01,22,01,06,2.90
2010,01,22,01,07,2.90
2010,01,22,01,08,2.90
2010,01,22,01,09,3.00
2010,01,22,01,10,3.10
2010,01,22,01,11,3.10
2010,01,22,01,12,3.10
2010,01,22,01,13,3.10
2010,01,22,01,14,3.10
2010,01,22,01,15,3.10
2010,01,22,01,16,3.10
2010,01,22,01,17,3.10
2010,01,22,01,18,3.10
2010,01,22,01,19,3.10
2010,01,22,01,20,3.10
2010,01,22,01,21,3.10
2010,01,22,01,22,3.10
2010,01,22,01,23,3.10
2010,01,22,01,24,3.10
2010,01,22,01,25,3.10
2010,01,22,01,26,3.10
2010,01,22,01,27,3.20
2010,01,22,01,28,3.20
2010,01,22,01,29,3.20
2010,01,22,01,30,3.30
2010,01,22,01,31,3.30
2010,01,22,01,32,3.40
2010,01,22,01,33,3.50
2010,01,22,01,34,3.50
2010,01,22,01,35,3.60
2010,01,22,01,36,3.60
2010,01,22,01,37,3.60
2010,01,22,01,38,3.70
2010,01,22,01,39,3.70
2010,01,22,01,40,3.70
2010,01,22,01,41,3.80
2010,01,22,01,42,3.80
2010,01,22,01,43,3.80
2010,01,22,01,44,3.80
2010,01,22,01,45,3.90
2010,01,22,01,46,3.90
2010,01,22,01,47,4.00
2010,01,22,01,48,4.00
2010,01,22,01,49,4.00
2010,01,22,01,50,4.10
2010,01,22,01,51,4.10
2010,01,22,01,52,4.10
2010,01,22,01,53,4.20
2010,01,22,01,54,4.20
2010,01,22,01,55,4.20
2010,01,22,01,56,4.20
2010,01,22,01,57,4.30
2010,01,22,01,58,4.30
2010,01,22,01,59,4.30
2010,01,22,02,00,4.40
2010,01,22,02,01,4.40
2010,01,22,02,02,4.40
2010,01,22,02,03,4.50
2010,01,22,02,04,4.50
2010,01,22,02,05,4.50
2010,01,22,02,06,4.50
2010,01,22,02,07,4.50
2010,01,22,02,08,4.50
2010,01,22,02,09,4.50
2010,01,22,02,10,4.60
2010,01,22,02,11,4.70
2010,01,22,02,12,4.90
2010,01,22,02,13,5.10
2010,01,22,02,14,5.40
2010,01,22,02,15,5.70
2010,01,22,02,16,5.80
2010,01,22,02,17,5.90
2010,01,22,02,18,6.10
2010,01,22,02,19,6.30
2010,01,22,02,20,6.50
2010,01,22,02,21,6.60
2010,01,22,02,22,6.70
2010,01,22,02,23,6.90
2010,01,22,02,24,7.00
2010,01,22,02,25,7.20
2010,01,22,02,26,7.30
2010,01,22,02,27,7.40
2010,01,22,02,28,7.40
2010,01,22,02,29,7.50
2010,01,22,02,30,7.60
2010,01,22,02,31,7.60
2010,01,22,02,32,7.70
2010,01,22,02,33,7.60
2010,01,22,02,34,7.60
2010,01,22,02,35,7.60
2010,01,22,02,36,7.60
2010,01,22,02,37,7.60
2010,01,22,02,38,7.60
2010,01,22,02,39,7.70
2010,01,22,02,40,7.70
2010,01,22,02,41,7.60
2010,01,22,02,42,7.70
2010,01,22,02,43,7.70
2010,01,22,02,44,7.60
2010,01,22,02,45,7.60
2010,01,22,02,46,7.60
2010,01,22,02,47,7.60
2010,01,22,02,48,7.60
2010,01,22,02,49,7.60
2010,01,22,02,50,7.60
2010,01,22,02,51,7.60
2010,01,22,02,52,7.60
2010,01,22,02,53,7.60
2010,01,22,02,54,7.60
2010,01,22,02,55,7.60
2010,01,22,02,56,7.60
2010,01,22,02,57,7.60
2010,01,22,02,58,7.60
2010,01,22,02,59,7.60
2010,01,22,03,00,7.60
2010,01,22,03,01,7.60
2010,01,22,03,02,7.70
2010,01,22,03,03,7.70
2010,01,22,03,04,7.70
2010,01,22,03,05,7.70
2010,01,22,03,06,7.70
2010,01,22,03,07,7.80
2010,01,22,03,08,7.80
2010,01,22,03,09,7.80
2010,01,22,03,10,7.80
2010,01,22,03,11,7.80
2010,01,22,03,12,7.80
2010,01,22,03,13,7.80
2010,01,22,03,14,7.80
2010,01,22,03,15,7.80
2010,01,22,03,16,7.80
2010,01,22,03,17,7.80
2010,01,22,03,18,7.80
2010,01,22,03,19,7.80
2010,01,22,03,20,7.80
2010,01,22,03,21,7.80
2010,01,22,03,22,7.80
2010,01,22,03,23,7.80
2010,01,22,03,24,7.80
2010,01,22,03,25,7.80
2010,01,22,03,26,7.80
2010,01,22,03,27,7.80
2010,01,22,03,28,7.80
2010,01,22,03,29,7.80
2010,01,22,03,30,7.80
2010,01,22,03,31,7.80
2010,01,22,03,32,7.80
2010,01,22,03,33,7.80
2010,01,22,03,34,7.80
2010,01,22,03,35,7.80
2010,01,22,03,36,7.90
2010,01,22,03,37,7.90
2010,01,22,03,38,7.90
2010,01,22,03,39,7.90
2010,01,22,03,40,7.90
2010,01,22,03,41,7.90
2010,01,22,03,42,7.90
2010,01,22,03,43,7.90
2010,01,22,03,44,7.90
2010,01,22,03,45,7.90
2010,01,22,03,46,7.90
2010,01,22,03,47,7.90
2010,01,22,03,48,7.90
2010,01,22,03,49,7.90
2010,01,22,03,50,7.80
2010,01,22,03,51,7.80
2010,01,22,03,52,7.80
2010,01,22,03,53,7.80
2010,01,22,03,54,7.80
2010,01,22,03,55,7.80
2010,01,22,03,56,7.80
2010,01,22,03,57,7.80
2010,01,22,03,58,7.80
2010,01,22,03,59,7.80
2010,01,22,04,00,7.80
2010,01,22,04,01,7.80
2010,01,22,04,02,7.80
2010,01,22,04,03,7.80
2010,01,22,04,04,7.80
2010,01,22,04,05,7.80
2010,01,22,04,06,7.80
2010,01,22,04,07,7.80
2010,01,22,04,08,7.80
2010,01,22,04,09,7.80
2010,01,22,04,10,7.80
2010,01,22,04,11,7.80
2010,01,22,04,12,7.90
2010,01,22,04,13,7.90
2010,01,22,04,14,8.00
2010,01,22,04,15,8.00
2010,01,22,04,16,8.00
2010,01,22,04,17,8.00
2010,01,22,04,18,8.00
2010,01,22,04,19,8.00
2010,01,22,04,20,8.00
2010,01,22,04,21,8.00
2010,01,22,04,22,8.00
2010,01,22,04,23,8.00
2010,01,22,04,24,8.00
2010,01,22,04,25,8.00
2010,01,22,04,26,8.00
2010,01,22,04,27,8.00
2010,01,22,04,28,8.00
2010,01,22,04,29,8.00
2010,01,22,04,30,8.00
2010,01,22,04,31,8.00
2010,01,22,04,32,8.00
2010,01,22,04,33,8.00
2010,01,22,04,34,8.00
2010,01,22,04,35,8.00
2010,01,22,04,36,8.00
2010,01,22,04,37,8.00
2010,01,22,04,38,8.00
2010,01,22,04,39,8.00
2010,01,22,04,40,8.00
2010,01,22,04,41,8.10
2010,01,22,04,42,8.10
2010,01,22,04,43,8.10
2010,01,22,04,44,8.10
2010,01,22,04,45,8.20
2010,01,22,04,46,8.20
2010,01,22,04,47,8.20
2010,01,22,04,48,8.20
2010,01,22,04,49,8.20
2010,01,22,04,50,8.20
2010,01,22,04,51,8.20
2010,01,22,04,52,8.10
2010,01,22,04,53,8.10
2010,01,22,04,54,8.10
2010,01,22,04,55,8.10
2010,01,22,04,56,8.10
2010,01,22,04,57,8.10
2010,01,22,04,58,8.10
2010,01,22,04,59,8.10
2010,01,22,05,00,8.10
2010,01,22,05,01,8.10
2010,01,22,05,02,8.10
2010,01,22,05,03,8.10
2010,01,22,05,04,8.10
2010,01,22,05,05,8.20
2010,01,22,05,06,8.20
2010,01,22,05,07,8.20
2010,01,22,05,08,8.20
2010,01,22,05,09,8.20
2010,01,22,05,10,8.20
2010,01,22,05,11,8.20
2010,01,22,05,12,8.20
2010,01,22,05,13,8.20
2010,01,22,05,14,8.20
2010,01,22,05,15,8.20
2010,01,22,05,16,8.20
2010,01,22,05,17,8.20
2010,01,22,05,18,8.20
2010,01,22,05,19,8.20
2010,01,22,05,20,8.20
2010,01,22,05,21,8.20
2010,01,22,05,22,8.20
2010,01,22,05,23,8.20
2010,01,22,05,24,8.20
2010,01,22,05,25,8.30
2010,01,22,05,26,8.30
2010,01,22,05,27,8.30
2010,01,22,05,28,8.30
2010,01,22,05,29,8.30
2010,01,22,05,30,8.30
2010,01,22,05,31,8.30
2010,01,22,05,32,8.30
2010,01,22,05,33,8.30
2010,01,22,05,34,8.30
2010,01,22,05,35,8.30
2010,01,22,05,36,8.30
2010,01,22,05,37,8.30
2010,01,22,05,38,8.20
2010,01,22,05,39,8.20
2010,01,22,05,40,8.20
2010,01,22,05,41,8.20
2010,01,22,05,42,8.20
2010,01,22,05,43,8.20
2010,01,22,05,44,8.20
2010,01,22,05,45,8.20
2010,01,22,05,46,8.20
2010,01,22,05,47,8.20
2010,01,22,05,48,8.20
2010,01,22,05,49,8.20
2010,01,22,05,50,8.20
2010,01,22,05,51,8.20
2010,01,22,05,52,8.20
2010,01,22,05,53,8.20
2010,01,22,05,54,8.20
2010,01,22,05,55,8.20
2010,01,22,05,56,8.20
2010,01,22,05,57,8.20
2010,01,22,05,58,8.20
2010,01,22,05,59,8.20
2010,01,22,06,00,8.20
2010,01,22,06,01,8.20
2010,01,22,06,02,8.20
2010,01,22,06,03,8.20
2010,01,22,06,04,8.10
2010,01,22,06,05,8.10
2010,01,22,06,06,8.20
2010,01,22,06,07,8.20
2010,01,22,06,08,8.20
2010,01,22,06,09,8.20
2010,01,22,06,10,8.20
2010,01,22,06,11,8.20
2010,01,22,06,12,8.20
2010,01,22,06,13,8.20
2010,01,22,06,14,8.20
2010,01,22,06,15,8.20
2010,01,22,06,16,8.20
2010,01,22,06,17,8.20
2010,01,22,06,18,8.20
2010,01,22,06,19,8.20
2010,01,22,06,20,8.20
2010,01,22,06,21,8.20
2010,01,22,06,22,8.20
2010,01,22,06,23,8.10
2010,01,22,06,24,8.10
2010,01,22,06,25,8.10
2010,01,22,06,26,8.10
2010,01,22,06,27,8.10
2010,01,22,06,28,8.10
2010,01,22,06,29,8.10
2010,01,22,06,30,8.10
2010,01,22,06,31,8.20
2010,01,22,06,32,8.20
2010,01,22,06,33,8.20
2010,01,22,06,34,8.20
2010,01,22,06,35,8.20
2010,01,22,06,36,8.20
2010,01,22,06,37,8.20
2010,01,22,06,38,8.20
2010,01,22,06,39,8.20
2010,01,22,06,40,8.20
2010,01,22,06,41,8.20
2010,01,22,06,42,8.10
2010,01,22,06,43,8.10
2010,01,22,06,44,8.10
2010,01,22,06,45,8.00
2010,01,22,06,46,8.00
2010,01,22,06,47,8.00
2010,01,22,06,48,7.90
2010,01,22,06,49,7.90
2010,01,22,06,50,7.90
2010,01,22,06,51,7.90
2010,01,22,06,52,7.80
2010,01,22,06,53,7.80
2010,01,22,06,54,7.80
2010,01,22,06,55,7.80
2010,01,22,06,56,7.80
2010,01,22,06,57,7.80
2010,01,22,06,58,7.80
2010,01,22,06,59,7.80
2010,01,22,07,00,7.80
2010,01,22,07,01,7.80
2010,01,22,07,02,7.80
2010,01,22,07,03,7.80
2010,01,22,07,04,7.70
2010,01,22,07,05,7.70
2010,01,22,07,06,7.70
2010,01,22,07,07,7.70
2010,01,22,07,08,7.70
2010,01,22,07,09,7.70
2010,01,22,07,10,7.70
2010,01,22,07,11,7.60
2010,01,22,07,12,7.60
2010,01,22,07,13,7.60
2010,01,22,07,14,7.60
2010,01,22,07,15,7.70
2010,01,22,07,16,7.70
2010,01,22,07,17,7.60
2010,01,22,07,18,7.60
2010,01,22,07,19,7.60
2010,01,22,07,20,7.60
2010,01,22,07,21,7.60
2010,01,22,07,22,7.60
2010,01,22,07,23,7.60
2010,01,22,07,24,7.60
2010,01,22,07,25,7.70
2010,01,22,07,26,7.70
2010,01,22,07,27,7.70
2010,01,22,07,28,7.70
2010,01,22,07,29,7.70
2010,01,22,07,30,7.70
2010,01,22,07,31,7.70
2010,01,22,07,32,7.60
2010,01,22,07,33,7.60
2010,01,22,07,34,7.60
2010,01,22,07,35,7.60
2010,01,22,07,36,7.60
2010,01,22,07,37,7.60
2010,01,22,07,38,7.60
2010,01,22,07,39,7.60
2010,01,22,07,40,7.60
2010,01,22,07,41,7.60
2010,01,22,07,42,7.60
2010,01,22,07,43,7.60
2010,01,22,07,44,7.50
2010,01,22,07,45,7.50
2010,01,22,07,46,7.40
2010,01,22,07,47,7.40
2010,01,22,07,48,7.40
2010,01,22,07,49,7.30
2010,01,22,07,50,7.30
2010,01,22,07,51,7.30
2010,01,22,07,52,7.30
2010,01,22,07,53,7.30
2010,01,22,07,54,7.30
2010,01,22,07,55,7.20
2010,01,22,07,56,7.20
2010,01,22,07,57,7.10
2010,01,22,07,58,7.10
2010,01,22,07,59,7.00
2010,01,22,08,00,7.00
2010,01,22,08,01,7.00
2010,01,22,08,02,7.10
2010,01,22,08,03,7.10
2010,01,22,08,04,7.20
2010,01,22,08,05,7.20
2010,01,22,08,06,7.20
2010,01,22,08,07,7.20
2010,01,22,08,08,7.10
2010,01,22,08,09,7.10
2010,01,22,08,10,7.00
2010,01,22,08,11,7.00
2010,01,22,08,12,6.90
2010,01,22,08,13,6.80
2010,01,22,08,14,6.80
2010,01,22,08,15,6.80
2010,01,22,08,16,6.70
2010,01,22,08,17,6.70
2010,01,22,08,18,6.80
2010,01,22,08,19,6.80
2010,01,22,08,20,6.80
2010,01,22,08,21,6.80
2010,01,22,08,22,6.80
2010,01,22,08,23,6.80
2010,01,22,08,24,6.80
2010,01,22,08,25,6.80
2010,01,22,08,26,6.80
2010,01,22,08,27,6.80
2010,01,22,08,28,6.80
2010,01,22,08,29,6.80
2010,01,22,08,30,6.80
2010,01,22,08,31,6.80
2010,01,22,08,32,6.80
2010,01,22,08,33,6.90
2010,01,22,08,34,7.00
2010,01,22,08,35,7.00
2010,01,22,08,36,7.00
2010,01,22,08,37,7.00
2010,01,22,08,38,7.00
2010,01,22,08,39,7.00
2010,01,22,08,40,7.00
2010,01,22,08,41,7.00
2010,01,22,08,42,7.00
2010,01,22,08,43,7.00
2010,01,22,08,44,7.00
2010,01,22,08,45,7.00
2010,01,22,08,46,7.00
2010,01,22,08,47,6.90
2010,01,22,08,48,6.90
2010,01,22,08,49,6.90
2010,01,22,08,50,6.80
2010,01,22,08,51,6.80
2010,01,22,08,52,6.80
2010,01,22,08,53,6.70
2010,01,22,08,54,6.70
2010,01,22,08,55,6.60
2010,01,22,08,56,6.50
2010,01,22,08,57,6.40
2010,01,22,08,58,6.20
2010,01,22,08,59,6.20
2010,01,22,09,00,6.10
2010,01,22,09,01,6.00
2010,01,22,09,02,6.00
2010,01,22,09,03,6.00
2010,01,22,09,04,5.90
2010,01,22,09,05,5.90
2010,01,22,09,06,5.90
2010,01,22,09,07,5.80
2010,01,22,09,08,5.80
2010,01,22,09,09,5.80
2010,01,22,09,10,5.80
2010,01,22,09,11,5.70
2010,01,22,09,12,5.70
2010,01,22,09,13,5.70
2010,01,22,09,14,5.70
2010,01,22,09,15,5.70
2010,01,22,09,16,5.70
2010,01,22,09,17,5.70
2010,01,22,09,18,5.70
2010,01,22,09,19,5.70
2010,01,22,09,20,5.70
2010,01,22,09,21,5.70
2010,01,22,09,22,5.70
2010,01,22,09,23,5.70
2010,01,22,09,24,5.70
2010,01,22,09,25,5.70
2010,01,22,09,26,5.80
2010,01,22,09,27,5.80
2010,01,22,09,28,5.80
2010,01,22,09,29,5.80
2010,01,22,09,30,5.80
2010,01,22,09,31,5.80
2010,01,22,09,32,5.80
2010,01,22,09,33,5.90
2010,01,22,09,34,5.90
2010,01,22,09,35,5.90
2010,01,22,09,36,5.90
2010,01,22,09,37,5.90
2010,01,22,09,38,5.90
2010,01,22,09,39,5.90
2010,01,22,09,40,5.90
2010,01,22,09,41,5.90
2010,01,22,09,42,5.90
2010,01,22,09,43,5.90
2010,01,22,09,44,5.90
2010,01,22,09,45,5.90
2010,01,22,09,46,5.90
2010,01,22,09,47,5.90
2010,01,22,09,48,5.90
2010,01,22,09,49,5.90
2010,01,22,09,50,5.90
2010,01,22,09,51,5.90
2010,01,22,09,52,5.90
2010,01,22,09,53,5.90
2010,01,22,09,54,5.90
2010,01,22,09,55,5.90
2010,01,22,09,56,5.90
2010,01,22,09,57,5.90
2010,01,22,09,58,5.90
2010,01,22,09,59,5.90
2010,01,22,10,00,5.90
2010,01,22,10,01,5.90
2010,01,22,10,02,5.90
2010,01,22,10,03,6.00
2010,01,22,10,04,6.00
2010,01,22,10,05,6.00
2010,01,22,10,06,6.00
2010,01,22,10,07,6.00
2010,01,22,10,08,6.10
2010,01,22,10,09,6.10
2010,01,22,10,10,6.10
2010,01,22,10,11,6.20
2010,01,22,10,12,6.20
2010,01,22,10,13,6.20
2010,01,22,10,14,6.30
2010,01,22,10,15,6.30
2010,01,22,10,16,6.40
2010,01,22,10,17,6.40
2010,01,22,10,18,6.50
2010,01,22,10,19,6.60
2010,01,22,10,20,6.60
2010,01,22,10,21,6.60
2010,01,22,10,22,6.70
2010,01,22,10,23,6.70
2010,01,22,10,24,6.70
2010,01,22,10,25,6.80
2010,01,22,10,26,6.80
2010,01,22,10,27,6.80
2010,01,22,10,28,6.80
2010,01,22,10,29,6.80
2010,01,22,10,30,6.90
2010,01,22,10,31,6.90
2010,01,22,10,32,6.90
2010,01,22,10,33,7.00
2010,01,22,10,34,7.00
2010,01,22,10,35,7.00
2010,01,22,10,36,7.10
2010,01,22,10,37,7.10
2010,01,22,10,38,7.10
2010,01,22,10,39,7.20
2010,01,22,10,40,7.20
2010,01,22,10,41,7.20
2010,01,22,10,42,7.30
2010,01,22,10,43,7.30
2010,01,22,10,44,7.40
2010,01,22,10,45,7.50
2010,01,22,10,46,7.60
2010,01,22,10,47,7.60
2010,01,22,10,48,7.70
2010,01,22,10,49,7.80
2010,01,22,10,50,7.80
2010,01,22,10,51,7.90
2010,01,22,10,52,8.00
2010,01,22,10,53,8.00
2010,01,22,10,54,8.10
2010,01,22,10,55,8.20
2010,01,22,10,56,8.20
2010,01,22,10,57,8.10
2010,01,22,10,58,8.10
2010,01,22,10,59,8.00
2010,01,22,11,00,7.90
2010,01,22,11,01,7.80
2010,01,22,11,02,7.80
2010,01,22,11,03,7.80
2010,01,22,11,04,7.70
2010,01,22,11,05,7.70
2010,01,22,11,06,7.70
2010,01,22,11,07,7.70
2010,01,22,11,08,7.70
2010,01,22,11,09,7.70
2010,01,22,11,10,7.70
2010,01,22,11,11,7.80
2010,01,22,11,12,7.80
2010,01,22,11,13,7.80
2010,01,22,11,14,7.80
2010,01,22,11,15,7.80
2010,01,22,11,16,7.80
2010,01,22,11,17,7.90
2010,01,22,11,18,7.90
2010,01,22,11,19,7.90
2010,01,22,11,20,7.90
2010,01,22,11,21,8.00
2010,01,22,11,22,8.00
2010,01,22,11,23,8.00
2010,01,22,11,24,8.10
2010,01,22,11,25,8.10
2010,01,22,11,26,8.10
2010,01,22,11,27,8.10
2010,01,22,11,28,8.20
2010,01,22,11,29,8.20
2010,01,22,11,30,8.20
2010,01,22,11,31,8.20
2010,01,22,11,32,8.20
2010,01,22,11,33,8.20
2010,01,22,11,34,8.20
2010,01,22,11,35,8.20
2010,01,22,11,36,8.20
2010,01,22,11,37,8.20
2010,01,22,11,38,8.20
2010,01,22,11,39,8.20
2010,01,22,11,40,8.20
2010,01,22,11,41,8.20
2010,01,22,11,42,8.20
2010,01,22,11,43,8.30
2010,01,22,11,44,8.30
2010,01,22,11,45,8.40
2010,01,22,11,46,8.40
2010,01,22,11,47,8.50
2010,01,22,11,48,8.50
2010,01,22,11,49,8.60
2010,01,22,11,50,8.60
2010,01,22,11,51,8.70
2010,01,22,11,52,8.70
2010,01,22,11,53,8.80
2010,01,22,11,54,8.90
2010,01,22,11,55,8.90
2010,01,22,11,56,9.00
2010,01,22,11,57,9.00
2010,01,22,11,58,9.10
2010,01,22,11,59,9.10
2010,01,22,12,00,9.20
2010,01,22,12,01,9.20
2010,01,22,12,02,9.20
2010,01,22,12,03,9.30
2010,01,22,12,04,9.30
2010,01,22,12,05,9.40
2010,01,22,12,06,9.50
2010,01,22,12,07,9.60
2010,01,22,12,08,9.70
2010,01,22,12,09,9.80
2010,01,22,12,10,10.00
2010,01,22,12,11,10.10
2010,01,22,12,12,10.20
2010,01,22,12,13,10.30
2010,01,22,12,14,10.30
2010,01,22,12,15,10.40
2010,01,22,12,16,10.40
2010,01,22,12,17,10.40
2010,01,22,12,18,10.40
2010,01,22,12,19,10.40
2010,01,22,12,20,10.40
2010,01,22,12,21,10.40
2010,01,22,12,22,10.40
2010,01,22,12,23,10.40
2010,01,22,12,24,10.40
2010,01,22,12,25,10.40
2010,01,22,12,26,10.40
2010,01,22,12,27,10.40
2010,01,22,12,28,10.40
2010,01,22,12,29,10.40
2010,01,22,12,30,10.40
2010,01,22,12,31,10.40
2010,01,22,12,32,10.40
2010,01,22,12,33,10.40
2010,01,22,12,34,10.40
2010,01,22,12,35,10.40
2010,01,22,12,36,10.40
2010,01,22,12,37,10.40
2010,01,22,12,38,10.40
2010,01,22,12,39,10.40
2010,01,22,12,40,10.40
2010,01,22,12,41,10.30
2010,01,22,12,42,10.40
2010,01,22,12,43,10.40
2010,01,22,12,44,10.40
2010,01,22,12,45,10.40
2010,01,22,12,46,10.40
2010,01,22,12,47,10.40
2010,01,22,12,48,10.30
2010,01,22,12,49,10.30
2010,01,22,12,50,10.30
2010,01,22,12,51,10.30
2010,01,22,12,52,10.30
2010,01,22,12,53,10.30
2010,01,22,12,54,10.30
2010,01,22,12,55,10.30
2010,01,22,12,56,10.20
2010,01,22,12,57,10.20
2010,01,22,12,58,10.20
2010,01,22,12,59,10.20
2010,01,22,13,00,10.20
2010,01,22,13,01,10.20
2010,01,22,13,02,10.20
2010,01,22,13,03,10.20
2010,01,22,13,04,10.20
2010,01,22,13,05,10.20
2010,01,22,13,06,10.20
2010,01,22,13,07,10.20
2010,01,22,13,08,10.20
2010,01,22,13,09,10.20
2010,01,22,13,10,10.20
2010,01,22,13,11,10.20
2010,01,22,13,12,10.20
2010,01,22,13,13,10.20
2010,01,22,13,14,10.20
2010,01,22,13,15,10.20
2010,01,22,13,16,10.20
2010,01,22,13,17,10.20
2010,01,22,13,18,10.20
2010,01,22,13,19,10.20
2010,01,22,13,20,10.20
2010,01,22,13,21,10.20
2010,01,22,13,22,10.20
2010,01,22,13,23,10.20
2010,01,22,13,24,10.20
2010,01,22,13,25,10.20
2010,01,22,13,26,10.20
2010,01,22,13,27,10.20
2010,01,22,13,28,10.20
2010,01,22,13,29,10.20
2010,01,22,13,30,10.20
2010,01,22,13,31,10.20
2010,01,22,13,32,10.20
2010,01,22,13,33,10.30
2010,01,22,13,34,10.30
2010,01,22,13,35,10.30
2010,01,22,13,36,10.30
2010,01,22,13,37,10.30
2010,01,22,13,38,10.30
2010,01,22,13,39,10.30
2010,01,22,13,40,10.30
2010,01,22,13,41,10.30
2010,01,22,13,42,10.30
2010,01,22,13,43,10.30
2010,01,22,13,44,10.40
2010,01,22,13,45,10.40
2010,01,22,13,46,10.40
2010,01,22,13,47,10.40
2010,01,22,13,48,10.40
2010,01,22,13,49,10.40
2010,01,22,13,50,10.40
2010,01,22,13,51,10.40
2010,01,22,13,52,10.40
2010,01,22,13,53,10.40
2010,01,22,13,54,10.20
2010,01,22,13,55,10.10
2010,01,22,13,56,10.00
2010,01,22,13,57,9.80
2010,01,22,13,58,9.70
2010,01,22,13,59,9.70
2010,01,22,14,00,9.60
2010,01,22,14,01,9.50
2010,01,22,14,02,9.50
2010,01,22,14,03,9.40
2010,01,22,14,04,9.40
2010,01,22,14,05,9.30
2010,01,22,14,06,9.20
2010,01,22,14,07,9.20
2010,01,22,14,08,9.20
2010,01,22,14,09,9.20
2010,01,22,14,10,9.20
2010,01,22,14,11,9.20
2010,01,22,14,12,9.20
2010,01,22,14,13,9.20
2010,01,22,14,14,9.20
2010,01,22,14,15,9.10
2010,01,22,14,16,9.10
2010,01,22,14,17,9.10
2010,01,22,14,18,9.10
2010,01,22,14,19,9.00
2010,01,22,14,20,9.00
2010,01,22,14,21,9.00
2010,01,22,14,22,9.00
2010,01,22,14,23,9.10
2010,01,22,14,24,9.10
2010,01,22,14,25,9.10
2010,01,22,14,26,9.10
2010,01,22,14,27,9.20
2010,01,22,14,28,9.20
2010,01,22,14,29,9.20
2010,01,22,14,30,9.20
2010,01,22,14,31,9.20
2010,01,22,14,32,9.30
2010,01,22,14,33,9.30
2010,01,22,14,34,9.40
2010,01,22,14,35,9.40
2010,01,22,14,36,9.40
2010,01,22,14,37,9.50
2010,01,22,14,38,9.50
2010,01,22,14,39,9.50
2010,01,22,14,40,9.40
2010,01,22,14,41,9.40
2010,01,22,14,42,9.40
2010,01,22,14,43,9.40
2010,01,22,14,44,9.40
2010,01,22,14,45,9.40
2010,01,22,14,46,9.40
2010,01,22,14,47,9.40
2010,01,22,14,48,9.40
2010,01,22,14,49,9.40
2010,01,22,14,50,9.40
2010,01,22,14,51,9.40
2010,01,22,14,52,9.40
2010,01,22,14,53,9.40
2010,01,22,14,54,9.50
2010,01,22,14,55,9.50
2010,01,22,14,56,9.50
2010,01,22,14,57,9.50
2010,01,22,14,58,9.60
2010,01,22,14,59,9.60
2010,01,22,15,00,9.60
2010,01,22,15,01,9.70
2010,01,22,15,02,9.70
2010,01,22,15,03,9.70
2010,01,22,15,04,9.70
2010,01,22,15,05,9.70
2010,01,22,15,06,9.70
2010,01,22,15,07,9.70
2010,01,22,15,08,9.70
2010,01,22,15,09,9.70
2010,01,22,15,10,9.70
2010,01,22,15,11,9.70
2010,01,22,15,12,9.70
2010,01,22,15,13,9.70
2010,01,22,15,14,9.70
2010,01,22,15,15,9.70
2010,01,22,15,16,9.70
2010,01,22,15,17,9.70
2010,01,22,15,18,9.70
2010,01,22,15,19,9.70
2010,01,22,15,20,9.70
2010,01,22,15,21,9.70
2010,01,22,15,22,9.70
2010,01,22,15,23,9.70
2010,01,22,15,24,9.70
2010,01,22,15,25,9.70
2010,01,22,15,26,9.70
2010,01,22,15,27,9.70
2010,01,22,15,28,9.70
2010,01,22,15,29,9.70
2010,01,22,15,30,9.70
2010,01,22,15,31,9.70
2010,01,22,15,32,9.70
2010,01,22,15,33,9.70
2010,01,22,15,34,9.70
2010,01,22,15,35,9.70
2010,01,22,15,36,9.70
2010,01,22,15,37,9.70
2010,01,22,15,38,9.60
2010,01,22,15,39,9.60
2010,01,22,15,40,9.60
2010,01,22,15,41,9.60
2010,01,22,15,42,9.60
2010,01,22,15,43,9.60
2010,01,22,15,44,9.60
2010,01,22,15,45,9.60
2010,01,22,15,46,9.60
2010,01,22,15,47,9.50
2010,01,22,15,48,9.50
2010,01,22,15,49,9.50
2010,01,22,15,50,9.50
2010,01,22,15,51,9.50
2010,01,22,15,52,9.50
2010,01,22,15,53,9.50
2010,01,22,15,54,9.50
2010,01,22,15,55,9.50
2010,01,22,15,56,9.50
2010,01,22,15,57,9.50
2010,01,22,15,58,9.50
2010,01,22,15,59,9.40
2010,01,22,16,00,9.40
2010,01,22,16,01,9.40
2010,01,22,16,02,9.30
2010,01,22,16,03,9.30
2010,01,22,16,04,9.20
2010,01,22,16,05,9.20
2010,01,22,16,06,9.20
2010,01,22,16,07,9.20
2010,01,22,16,08,9.10
2010,01,22,16,09,9.10
2010,01,22,16,10,9.00
2010,01,22,16,11,9.00
2010,01,22,16,12,8.90
2010,01,22,16,13,8.90
2010,01,22,16,14,8.90
2010,01,22,16,15,8.80
2010,01,22,16,16,8.70
2010,01,22,16,17,8.70
2010,01,22,16,18,8.70
2010,01,22,16,19,8.70
2010,01,22,16,20,8.60
2010,01,22,16,21,8.60
2010,01,22,16,22,8.50
2010,01,22,16,23,8.50
2010,01,22,16,24,8.40
2010,01,22,16,25,8.40
2010,01,22,16,26,8.30
2010,01,22,16,27,8.30
2010,01,22,16,28,8.30
2010,01,22,16,29,8.20
2010,01,22,16,30,8.20
2010,01,22,16,31,8.20
2010,01,22,16,32,8.20
2010,01,22,16,33,8.20
2010,01,22,16,34,8.10
2010,01,22,16,35,8.10
2010,01,22,16,36,8.10
2010,01,22,16,37,8.10
2010,01,22,16,38,8.00
2010,01,22,16,39,8.00
2010,01,22,16,40,8.00
2010,01,22,16,41,8.00
2010,01,22,16,42,7.90
2010,01,22,16,43,7.90
2010,01,22,16,44,7.90
2010,01,22,16,45,7.90
2010,01,22,16,46,7.90
2010,01,22,16,47,7.90
2010,01,22,16,48,7.90
2010,01,22,16,49,7.80
2010,01,22,16,50,7.80
2010,01,22,16,51,7.80
2010,01,22,16,52,7.80
2010,01,22,16,53,7.80
2010,01,22,16,54,7.80
2010,01,22,16,55,7.70
2010,01,22,16,56,7.70
2010,01,22,16,57,7.70
2010,01,22,16,58,7.60
2010,01,22,16,59,7.60
2010,01,22,17,00,7.50
2010,01,22,17,01,7.40
2010,01,22,17,02,7.40
2010,01,22,17,03,7.30
2010,01,22,17,04,7.30
2010,01,22,17,05,7.30
2010,01,22,17,06,7.30
2010,01,22,17,07,7.20
2010,01,22,17,08,7.20
2010,01,22,17,09,7.10
2010,01,22,17,10,7.10
2010,01,22,17,11,7.00
2010,01,22,17,12,7.00
2010,01,22,17,13,7.00
2010,01,22,17,14,6.90
2010,01,22,17,15,6.90
2010,01,22,17,16,6.80
2010,01,22,17,17,6.80
2010,01,22,17,18,6.80
2010,01,22,17,19,6.80
2010,01,22,17,20,6.80
2010,01,22,17,21,6.70
2010,01,22,17,22,6.70
2010,01,22,17,23,6.70
2010,01,22,17,24,6.60
2010,01,22,17,25,6.60
2010,01,22,17,26,6.60
2010,01,22,17,27,6.50
2010,01,22,17,28,6.40
2010,01,22,17,29,6.40
2010,01,22,17,30,6.40
2010,01,22,17,31,6.40
2010,01,22,17,32,6.30
2010,01,22,17,33,6.30
2010,01,22,17,34,6.20
2010,01,22,17,35,6.20
2010,01,22,17,36,6.20
2010,01,22,17,37,6.10
2010,01,22,17,38,6.10
2010,01,22,17,39,6.00
2010,01,22,17,40,6.00
2010,01,22,17,41,6.00
2010,01,22,17,42,6.00
2010,01,22,17,43,5.90
2010,01,22,17,44,5.90
2010,01,22,17,45,5.90
2010,01,22,17,46,5.80
2010,01,22,17,47,5.80
2010,01,22,17,48,5.80
2010,01,22,17,49,5.70
2010,01,22,17,50,5.70
2010,01,22,17,51,5.70
2010,01,22,17,52,5.70
2010,01,22,17,53,5.70
2010,01,22,17,54,5.70
2010,01,22,17,55,5.70
2010,01,22,17,56,5.70
2010,01,22,17,57,5.60
2010,01,22,17,58,5.60
2010,01,22,17,59,5.60
2010,01,22,18,00,5.60
2010,01,22,18,01,5.50